Weather History for Pocatello, ID

Change the Weather History Date:

Thursday, September 18, 2014

  Actual Average Record
Temperature  
Mean Temperature 71 °F 58 °F  
Max Temperature 84 °F 75 °F 92 °F (1979)
Min Temperature 57 °F 41 °F 23 °F (1965)
Degree Days  
Heating Degree Days 0 7  
Month to date heating degree days 85 84  
Since 1 July heating degree days 120 130  
Cooling Degree Days 6 0  
Month to date cooling degree days 26 20  
Year to date cooling degree days 412 390  
Growing Degree Days 22 (Base 50)    
Moisture  
Dew Point 50 °F    
Average Humidity 61    
Maximum Humidity 93    
Minimum Humidity 28    
Precipitation  
Precipitation 0.15 in 0.03 in 1.05 in (1961)
Month to date precipitation 0.21 0.48  
Year to date precipitation 8.99 8.55  
Snow  
Snow 0.00 in - - ()
Month to date snowfall 0.0  
Since 1 July snowfall 0.0  
Since 1 September snowfall 0.0  
Snow Depth 0.00 in    
Sea Level Pressure  
Sea Level Pressure 29.77 in    
Wind  
Wind Speed 10 mph (SSW)    
Max Wind Speed 25 mph    
Max Gust Speed 31 mph    
Visibility 10 miles    
Events Rain , Thunderstorm    
T = Trace of Precipitation, MM = Missing Value Source: NWS Daily Summary

Daily Weather History Graph

Daily Weather History Graph

Search for Another Location

Airport:

Trip Planner

Search our weather history database for the weather conditions in past years. The results will help you decide how hot, cold, wet, or windy it might be!

Date:

Astronomy

Sep. 18, 2014 Rise Set
Actual Time 7:13 AM MDT 7:34 PM MDT
Civil Twilight 6:44 AM MDT 8:02 PM MDT
Nautical Twilight 6:11 AM MDT 8:36 PM MDT
Astronomical Twilight 5:37 AM MDT 9:10 PM MDT
Moon 2:02 AM MDT (9/18) 4:33 PM MDT (9/18)
Length of Visible Light 13h 18m
Length of Day
12h 21m
Waning Crescent, 25% of the Moon is Illuminated
Sep 18
Waning Crescent
Sep 24
New
Oct 1
First Quarter
Oct 8
Full
Oct 15
Last Quarter

Hourly Weather History & Observations

Time (MDT) Temp. Dew Point Humidity Pressure Visibility Wind Dir Wind Speed Gust Speed Precip Events Conditions
12:45 AM 73.9 °F 42.1 °F 32% 29.90 in 10.0 mi WSW 10.4 mph - N/A   Scattered Clouds
12:53 AM 73.0 °F 43.0 °F 34% 29.71 in 10.0 mi SSW 12.7 mph - N/A   Mostly Cloudy
1:53 AM 69.1 °F 46.0 °F 44% 29.70 in 10.0 mi East 6.9 mph - N/A   Clear
2:53 AM 71.6 °F 42.8 °F 35% 29.86 in 10.0 mi East 8.1 mph - N/A   Scattered Clouds
3:53 AM 64.9 °F 46.9 °F 52% 29.68 in 10.0 mi NNW 11.5 mph - N/A   Scattered Clouds
4:53 AM 64.0 °F 46.0 °F 52% 29.67 in 10.0 mi Calm Calm - N/A   Clear
5:53 AM 77.0 °F 41.0 °F 28% 29.83 in 10.0 mi South 23.0 mph 31.1 mph N/A   Clear
6:53 AM 75.0 °F 42.1 °F 31% 29.72 in 10.0 mi West 23.0 mph 31.1 mph N/A   Clear
7:00 AM 71.1 °F 43.0 °F 36% 29.89 in 10.0 mi West 16.1 mph 31.1 mph N/A   Partly Cloudy
7:34 AM 64.9 °F 48.9 °F 56% 29.89 in 10.0 mi ENE 6.9 mph - 0.00 in Rain , Thunderstorm Light Thunderstorms and Rain
7:53 AM 66.0 °F 48.9 °F 54% 29.76 in 10.0 mi Calm Calm - 0.00 in Thunderstorm Overcast
8:12 AM 63.0 °F 53.1 °F 70% 29.90 in 10.0 mi Variable 3.5 mph - 0.01 in Rain , Thunderstorm Light Thunderstorms and Rain
8:53 AM 64.0 °F 57.0 °F 78% 29.75 in 10.0 mi ESE 6.9 mph - 0.07 in Rain , Thunderstorm Light Thunderstorms and Rain
9:23 AM 66.9 °F 57.9 °F 73% 29.90 in 10.0 mi East 5.8 mph - 0.00 in   Mostly Cloudy
9:53 AM 70.0 °F 57.0 °F 63% 29.74 in 10.0 mi East 4.6 mph - 0.00 in   Scattered Clouds
10:53 AM 82.0 °F 52.0 °F 35% 29.72 in 10.0 mi WSW 13.8 mph 17.3 mph N/A   Scattered Clouds
11:53 AM 80.1 °F 48.9 °F 34% 29.72 in 10.0 mi West 17.3 mph - N/A   Scattered Clouds
12:53 PM 82.0 °F 46.9 °F 29% 29.71 in 10.0 mi West 18.4 mph - N/A   Scattered Clouds
1:53 PM 81.0 °F 46.9 °F 30% 29.72 in 10.0 mi West 20.7 mph 25.3 mph N/A   Mostly Cloudy
2:53 PM 82.0 °F 46.9 °F 29% 29.69 in 10.0 mi WSW 16.1 mph - N/A   Mostly Cloudy
3:53 PM 79.0 °F 46.9 °F 32% 29.70 in 10.0 mi WSW 9.2 mph - N/A   Mostly Cloudy
4:46 PM 75.9 °F 48.0 °F 37% 29.88 in 10.0 mi South 12.7 mph - N/A Thunderstorm Thunderstorm
4:53 PM 75.9 °F 48.9 °F 38% 29.75 in 10.0 mi SSW 15.0 mph - N/A Thunderstorm Thunderstorm
5:53 PM 64.0 °F 57.9 °F 80% 29.77 in 10.0 mi SSE 20.7 mph - 0.04 in Rain , Thunderstorm Light Thunderstorms and Rain
6:53 PM 63.0 °F 57.0 °F 81% 29.75 in 10.0 mi Variable 5.8 mph - 0.04 in Rain Light Rain
7:53 PM 64.0 °F 55.0 °F 73% 29.75 in 10.0 mi South 5.8 mph - 0.00 in Thunderstorm Clear
8:53 PM 62.1 °F 55.9 °F 80% 29.80 in 10.0 mi WSW 11.5 mph - N/A   Clear
9:53 PM 63.0 °F 55.9 °F 78% 29.79 in 10.0 mi SSW 4.6 mph - N/A   Mostly Cloudy
10:53 PM 62.1 °F 55.0 °F 78% 29.77 in 10.0 mi Calm Calm - N/A   Partly Cloudy
11:53 PM 59.0 °F 57.0 °F 93% 29.79 in 10.0 mi SSW 3.5 mph - N/A   Clear